Location: Gammelsbach
(49.5261°N, 8.9630°E)
Time: 05:40:06
(UTC+00:00)

Geosat - Pass Details

Date: 17 June 2025
Orbit: 758 x 761 km, 108.1° (Epoch: 12 July)

Event Time Altitude Azimuth Distance (km) Brightness Sun altitude
Rises 21:44:01 0° 30° (NNE) 3,233 7.8 -13.7°
Reaches altitude 10° 21:46:18 10° 32° (NNE) 2,304 7.0 -13.8°
Maximum altitude 21:51:20 77° 118° (ESE) 786 3.9 -14.1°
Enters shadow 21:56:17 10° 205° (SSW) 2,275 6.0 -14.4°
